This is the latest recevied weather packets stored in our database for station/object N8DMH-13. If no packets are shown the sender has not sent any weather packets the latest 10 day(s).
| Time | Temp. | Humidity | Pressure | Rain* | Wind** | Luminosity | Snow |
|---|---|---|---|---|---|---|---|
| 1778001575 | 11.67° C | 37% | 1006 hPa | 0 mm | - | - | - |
| 1778001275 | 11.67° C | 38% | 1005.7 hPa | 0 mm | - | - | - |
| 1778000945 | 11.67° C | 38% | 1005.8 hPa | 0 mm | - | - | - |
| 1778000645 | 11.11° C | 35% | 1005.7 hPa | 0 mm | - | - | - |
| 1778000345 | 11.11° C | 34% | 1005.7 hPa | 0 mm | - | - | - |
| 1778000015 | 11.67° C | 38% | 1005.9 hPa | 0 mm | - | - | - |
| 1777999715 | 11.11° C | 37% | 1005.9 hPa | 0 mm | - | - | - |
| 1777999415 | 11.11° C | 36% | 1006 hPa | 0 mm | - | - | - |
| 1777999114 | 11.11° C | 36% | 1005.9 hPa | 0 mm | - | - | - |
| 1777998814 | 11.11° C | 38% | 1006 hPa | 0 mm | - | - | - |
| 1777998484 | 11.11° C | 38% | 1006 hPa | 0 mm | - | - | - |
| 1777998156 | 11.11° C | 39% | 1005.9 hPa | 0 mm | - | - | - |
| 1777997824 | 11.11° C | 41% | 1005.9 hPa | 0 mm | - | - | - |
| 1777997524 | 10.56° C | 41% | 1006 hPa | 0 mm | - | - | - |
| 1777997194 | 10.56° C | 44% | 1005.9 hPa | 0 mm | - | - | - |
| 1777996894 | 11.11° C | 45% | 1006 hPa | 0 mm | - | - | - |
| 1777996594 | 10.56° C | 44% | 1005.9 hPa | 0 mm | - | - | - |
| 1777996265 | 10.56° C | 45% | 1005.8 hPa | 0 mm | - | - | - |
| 1777995964 | 10.56° C | 44% | 1005.7 hPa | 0 mm | - | - | - |
| 1777995634 | 10.56° C | 44% | 1005.8 hPa | 0 mm | - | - | - |
| 1777995333 | 10.56° C | 45% | 1005.9 hPa | 0 mm | - | - | - |
| 1777995033 | 10.56° C | 45% | 1006 hPa | 0 mm | - | - | - |
| 1777994705 | 10° C | 48% | 1006 hPa | 0 mm | - | - | - |
| 1777994403 | 10° C | 48% | 1005.8 hPa | 0 mm | - | - | - |
| 1777994073 | 10° C | 47% | 1005.7 hPa | 0 mm | - | - | - |
* Rain latest hour (hover to see other rain measurements)
** Current wind speed in m/s (hover to see current wind gust speed)